Regional Weather Roundup
Issued by NWS Spokane, WA

Home | Current Version | Previous Version | Text Only | Print | Product List | Glossary On
Versions: 1 2 3 4 5 6 7 8 9 10 11 12 13 14 15 16 17 18 19 20 21 22 23 24 25 26 27 28 29 30 31 32 33 34 35 36 37 38 39 40 41 42 43 44 45 46 47 48 49 50
660
NZUS01 KOTX 291710
RWROTX
EASTERN WASHINGTON/NORTHERN IDAHO ROUNDUP
NATIONAL WEATHER SERVICE, SPOKANE WA
1000 AM PDT FRI APR 29 2016

Note: "fair" indicated few or no clouds below 12,000 feet with no
significant weather and/or obstructions to visibility.

...NORTHEAST WASHINGTON AND NORTHERN IDAHO PANHANDLE...

CITY           SKY/WX    TMP DP  RH WIND       PRES   REMARKS
SPOKANE INTL   LGT RAIN  50  37  61 SE5       29.94S
SPOKANE DOWNTO LGT RAIN  51  39  63 SE6       29.95S
COEUR D ALENE  CLOUDY    48  36  61 N5        29.93S
DEER PARK      LGT RAIN  50  40  68 SE6       29.95R
SANDPOINT      LGT RAIN  50  34  53 CALM      29.95S

...SOUTHEAST WASHINGTON AND SOUTHERN IDAHO PANHANDLE...

CITY           SKY/WX    TMP DP  RH WIND       PRES   REMARKS
WALLA WALLA    PTSUNNY   53  43  68 SW13      29.95F
PULLMAN/MOSCOW LGT RAIN  45  42  89 W12       29.96S
LEWISTON       LGT RAIN  49  46  90 SW5       29.96S
LOWELL           N/A     50  44  80 CALM      29.95F

...COLUMBIA BASIN...

CITY           SKY/WX    TMP DP  RH WIND       PRES   REMARKS
EPHRATA        CLOUDY    53  47  79 NE10      29.94S
MOSES LAKE     CLOUDY    53  47  79 E7        29.94S
TRI CITIES     CLOUDY    58  41  53 SW9       29.95S
HERMISTON      CLOUDY    59  41  51 SW14      29.96S
PENDLETON      CLOUDY    55  38  52 W26G32    29.96S

...EAST SLOPES CASCADES...

CITY           SKY/WX    TMP DP  RH WIND       PRES   REMARKS
THE DALLES     CLOUDY    57  38  48 NW23G32   30.03S
YAKIMA         CLOUDY    58  38  47 NW9       29.96S
ELLENSBURG     CLOUDY    52  37  56 NW28G37   29.95S
STAMPEDE PASS  FOG       34  33  96 VRB7      30.01S VSB 1/4 WCI  28
WENATCHEE      CLOUDY    57  37  47 W13       29.94S
OMAK           CLOUDY    53  46  77 SE5       29.95S

...SOUTHERN BRITISH COLUMBIA...

CITY           SKY/WX    TMP DP  RH WIND       PRES   REMARKS
PENTICTON      PTSUNNY   61  39  44 NE2       29.92F
CASTLEGAR      CLOUDY    50  46  87 VRB2      29.93F
CRANBROOK      LGT RAIN  45  37  76 W6        29.93S

...WESTERN MONTANA...

CITY           SKY/WX    TMP DP  RH WIND       PRES   REMARKS
MISSOULA       CLOUDY    46  34  62 W5        29.94F

...NEIGHBORING CITIES...

CITY           SKY/WX    TMP DP  RH WIND       PRES   REMARKS
SEATTLE        LGT RAIN  49  45  86 CALM      30.12R
CALGARY        CLOUDY    48  30  49 S17G24    29.95R



USA.gov is the U.S. government's official web portal to all federal, state and local government web resources and services.